Moorhead, MN

9:08 PM CDT on June 26, 2017 (GMT -0500)
Moorhead Municipal

Weather History for KJKJ - March, 2014

Change the Weather History Date:

Thursday, March 27, 2014

  Actual Average (KFAR) Record (KFAR)
Temperature  
Mean Temperature 27 °F -  
Max Temperature 35 °F 41 °F 78 °F (1946)
Min Temperature 19 °F 23 °F -7 °F (1964)
Degree Days  
Heating Degree Days 38    
Moisture  
Dew Point 23 °F    
Average Humidity 77    
Maximum Humidity 93    
Minimum Humidity 59    
Precipitation  
Precipitation 0.00 in - - ()
Sea Level Pressure  
Sea Level Pressure 29.68 in    
Wind  
Wind Speed 17 mph (North)    
Max Wind Speed 28 mph    
Max Gust Speed 33 mph    
Visibility 10 miles    
Events      
Averages and records for this station are not official NWS values.
T = Trace of Precipitation, MM = Missing Value Source: NWS Daily Summary

Daily Weather History Graph

Daily Weather History Graph

Search for Another Location

Airport or City:

Trip Planner

Search our weather history database for the weather conditions in past years. The results will help you decide how hot, cold, wet, or windy it might be!

Date:

Astronomy

Mar. 27, 2014 Rise Set
Actual Time 7:15 AM CDT 7:49 PM CDT
Civil Twilight 6:45 AM CDT 8:19 PM CDT
Nautical Twilight 6:09 AM CDT 8:55 PM CDT
Astronomical Twilight 5:31 AM CDT 9:33 PM CDT
Moon 5:20 AM CDT 4:27 PM CDT
Length of Visible Light 13h 34m
Length of Day
12h 33m
Waning Crescent, 13% of the Moon is Illuminated
Mar 27
Waning Crescent
Mar 30
New
Apr 7
First Quarter
Apr 15
Full
Apr 22
Last Quarter

Hourly Weather History & Observations

Time (CDT) Temp. Windchill Dew Point Humidity Pressure Visibility Wind Dir Wind Speed Gust Speed Precip Events Conditions
12:01 AM 35.6 °F 29.9 °F 28.4 °F 75% 29.51 in 10.0 mi NNE 6.9 mph - N/A   Clear
12:21 AM 35.6 °F 28.6 °F 28.4 °F 75% 29.51 in 10.0 mi NE 9.2 mph - N/A   Clear
12:41 AM 33.8 °F 25.3 °F 26.6 °F 75% 29.50 in 10.0 mi ENE 11.5 mph - N/A   Clear
1:01 AM 33.8 °F 26.4 °F 26.6 °F 75% 29.50 in 10.0 mi NE 9.2 mph - N/A   Clear
1:21 AM 33.8 °F 25.8 °F 28.4 °F 81% 29.51 in 10.0 mi North 10.4 mph - N/A   Clear
1:41 AM 32.0 °F 23.0 °F 26.6 °F 80% 29.51 in 10.0 mi NNE 11.5 mph - N/A   Clear
2:01 AM 32.0 °F 21.6 °F 26.6 °F 80% 29.50 in 10.0 mi NNE 15.0 mph - N/A   Clear
2:21 AM 32.0 °F 22.1 °F 26.6 °F 80% 29.51 in 10.0 mi NNE 13.8 mph - N/A   Clear
2:41 AM 32.0 °F 22.1 °F 26.6 °F 80% 29.50 in 10.0 mi NNE 13.8 mph - N/A   Clear
3:01 AM 32.0 °F 22.5 °F 28.4 °F 87% 29.51 in 10.0 mi North 12.7 mph - N/A   Clear
3:21 AM 32.0 °F 21.2 °F 26.6 °F 80% 29.51 in 10.0 mi NNE 16.1 mph - N/A   Clear
3:41 AM 30.2 °F 19.8 °F 26.6 °F 86% 29.51 in 10.0 mi NNE 13.8 mph - N/A   Clear
4:01 AM 30.2 °F 19.8 °F 26.6 °F 86% 29.52 in 10.0 mi NNE 13.8 mph - N/A   Clear
4:21 AM 30.2 °F 18.9 °F 24.8 °F 80% 29.52 in 10.0 mi North 16.1 mph - N/A   Clear
4:41 AM 30.2 °F 18.5 °F 24.8 °F 80% 29.52 in 10.0 mi NNE 17.3 mph - N/A   Clear
5:01 AM 30.2 °F 19.3 °F 24.8 °F 80% 29.52 in 10.0 mi North 15.0 mph - N/A   Clear
5:21 AM 30.2 °F 18.5 °F 24.8 °F 80% 29.55 in 10.0 mi North 17.3 mph 20.7 mph N/A   Clear
5:41 AM 30.2 °F 18.9 °F 24.8 °F 80% 29.56 in 10.0 mi North 16.1 mph - N/A   Clear
6:01 AM 28.4 °F 15.8 °F 24.8 °F 86% 29.57 in 10.0 mi North 18.4 mph - N/A   Clear
6:21 AM 28.4 °F 15.8 °F 26.6 °F 93% 29.57 in 10.0 mi North 18.4 mph 25.3 mph N/A   Clear
6:41 AM 26.6 °F 13.1 °F 24.8 °F 93% 29.58 in 10.0 mi North 19.6 mph 25.3 mph N/A   Clear
7:01 AM 26.6 °F 13.1 °F 24.8 °F 93% 29.58 in 10.0 mi North 19.6 mph - N/A   Clear
7:21 AM 26.6 °F 13.8 °F 24.8 °F 93% 29.60 in 10.0 mi North 17.3 mph - N/A   Clear
7:41 AM 26.6 °F 13.8 °F 24.8 °F 93% 29.61 in 10.0 mi North 17.3 mph - N/A   Clear
8:01 AM 26.6 °F 13.4 °F 24.8 °F 93% 29.62 in 10.0 mi North 18.4 mph 23.0 mph N/A   Clear
8:21 AM 26.6 °F 13.1 °F 24.8 °F 93% 29.62 in 10.0 mi North 19.6 mph 25.3 mph N/A   Mostly Cloudy
8:41 AM 26.6 °F 11.7 °F 24.8 °F 93% 29.62 in 10.0 mi North 24.2 mph - N/A   Overcast
9:01 AM 26.6 °F 11.7 °F 24.8 °F 93% 29.62 in 10.0 mi North 24.2 mph 31.1 mph N/A   Overcast
9:21 AM 28.4 °F 14.4 °F 24.8 °F 86% 29.62 in 10.0 mi North 23.0 mph 28.8 mph N/A   Overcast
9:41 AM 28.4 °F 14.7 °F 24.8 °F 86% 29.63 in 10.0 mi North 21.9 mph 29.9 mph N/A   Overcast
10:01 AM 28.4 °F 13.8 °F 24.8 °F 86% 29.64 in 10.0 mi North 25.3 mph - N/A   Mostly Cloudy
10:21 AM 28.4 °F 13.5 °F 24.8 °F 86% 29.64 in 10.0 mi North 26.5 mph 32.2 mph N/A   Scattered Clouds
10:41 AM 28.4 °F 13.5 °F 24.8 °F 86% 29.66 in 10.0 mi North 26.5 mph 33.4 mph N/A   Clear
11:01 AM 30.2 °F 17.4 °F 26.6 °F 86% 29.67 in 10.0 mi North 20.7 mph 31.1 mph N/A   Scattered Clouds
11:21 AM 30.2 °F 16.5 °F 24.8 °F 80% 29.67 in 10.0 mi North 24.2 mph 31.1 mph N/A   Mostly Cloudy
11:41 AM 30.2 °F 17.8 °F 24.8 °F 80% 29.67 in 10.0 mi North 19.6 mph 31.1 mph N/A   Overcast
12:01 PM 30.2 °F 15.7 °F 24.8 °F 80% 29.67 in 10.0 mi North 27.6 mph 31.1 mph N/A   Overcast
12:21 PM 30.2 °F 16.8 °F 24.8 °F 80% 29.68 in 10.0 mi NNE 23.0 mph 28.8 mph N/A   Mostly Cloudy
12:41 PM 30.2 °F 16.5 °F 24.8 °F 80% 29.69 in 10.0 mi NNE 24.2 mph 29.9 mph N/A   Scattered Clouds
1:01 PM 32.0 °F 18.6 °F 24.8 °F 75% 29.69 in 10.0 mi North 25.3 mph 28.8 mph N/A   Scattered Clouds
1:21 PM 32.0 °F 19.2 °F 24.8 °F 75% 29.69 in 10.0 mi North 23.0 mph - N/A   Scattered Clouds
1:41 PM 33.8 °F 21.3 °F 24.8 °F 70% 29.69 in 10.0 mi North 24.2 mph - N/A   Scattered Clouds
2:01 PM 33.8 °F 20.8 °F 24.8 °F 70% 29.70 in 10.0 mi North 26.5 mph - N/A   Scattered Clouds
2:21 PM 33.8 °F 21.0 °F 24.8 °F 70% 29.70 in 10.0 mi North 25.3 mph 32.2 mph N/A   Scattered Clouds
2:41 PM 33.8 °F 21.6 °F 24.8 °F 70% 29.71 in 10.0 mi North 23.0 mph 32.2 mph N/A   Mostly Cloudy
3:01 PM 33.8 °F 21.6 °F 24.8 °F 70% 29.72 in 10.0 mi North 23.0 mph 27.6 mph N/A   Mostly Cloudy
3:21 PM 33.8 °F 21.3 °F 24.8 °F 70% 29.72 in 10.0 mi North 24.2 mph 31.1 mph N/A   Mostly Cloudy
3:41 PM 33.8 °F 21.3 °F 24.8 °F 70% 29.73 in 10.0 mi North 24.2 mph 29.9 mph N/A   Mostly Cloudy
4:01 PM 33.8 °F 21.3 °F 24.8 °F 70% 29.73 in 10.0 mi North 24.2 mph 29.9 mph N/A   Mostly Cloudy
4:21 PM 33.8 °F 20.5 °F 23.0 °F 65% 29.74 in 10.0 mi North 27.6 mph 32.2 mph N/A   Mostly Cloudy
4:41 PM 33.8 °F 20.8 °F 23.0 °F 65% 29.74 in 10.0 mi North 26.5 mph 33.4 mph N/A   Scattered Clouds
5:01 PM 33.8 °F 21.9 °F 23.0 °F 65% 29.75 in 10.0 mi North 21.9 mph 32.2 mph N/A   Scattered Clouds
5:21 PM 32.0 °F 18.4 °F 23.0 °F 69% 29.76 in 10.0 mi North 26.5 mph 31.1 mph N/A   Mostly Cloudy
5:41 PM 32.0 °F 19.5 °F 23.0 °F 69% 29.76 in 10.0 mi North 21.9 mph 28.8 mph N/A   Overcast
6:01 PM 32.0 °F 18.9 °F 21.2 °F 64% 29.77 in 10.0 mi North 24.2 mph 27.6 mph N/A   Mostly Cloudy
6:21 PM 30.2 °F 17.4 °F 21.2 °F 69% 29.78 in 10.0 mi North 20.7 mph 29.9 mph N/A   Scattered Clouds
6:41 PM 30.2 °F 15.9 °F 19.4 °F 64% 29.79 in 10.0 mi North 26.5 mph - N/A   Clear
7:01 PM 30.2 °F 17.1 °F 19.4 °F 64% 29.80 in 10.0 mi North 21.9 mph 28.8 mph N/A   Clear
7:21 PM 28.4 °F 14.1 °F 17.6 °F 64% 29.81 in 10.0 mi North 24.2 mph 29.9 mph N/A   Clear
7:41 PM 28.4 °F 14.1 °F 15.8 °F 59% 29.82 in 10.0 mi North 24.2 mph 33.4 mph N/A   Clear
8:01 PM 26.6 °F 12.0 °F 17.6 °F 69% 29.83 in 10.0 mi North 23.0 mph - N/A   Clear
8:21 PM 26.6 °F 12.4 °F 15.8 °F 64% 29.84 in 10.0 mi North 21.9 mph 31.1 mph N/A   Clear
8:41 PM 24.8 °F 10.0 °F 15.8 °F 69% 29.85 in 10.0 mi North 21.9 mph 27.6 mph N/A   Clear
9:01 PM 24.8 °F 9.3 °F 17.6 °F 74% 29.86 in 10.0 mi North 24.2 mph 29.9 mph N/A   Clear
9:21 PM 24.8 °F 10.3 °F 17.6 °F 74% 29.87 in 10.0 mi North 20.7 mph 26.5 mph N/A   Clear
9:41 PM 23.0 °F 8.0 °F 14.0 °F 68% 29.89 in 10.0 mi North 20.7 mph 29.9 mph N/A   Clear
10:01 PM 21.2 °F 5.2 °F 12.2 °F 68% 29.90 in 10.0 mi North 21.9 mph 31.1 mph N/A   Clear
10:21 PM 21.2 °F 5.2 °F 12.2 °F 68% 29.92 in 10.0 mi North 21.9 mph 28.8 mph N/A   Clear
10:41 PM 21.2 °F 5.6 °F 12.2 °F 68% 29.93 in 10.0 mi North 20.7 mph 26.5 mph N/A   Clear
11:01 PM 19.4 °F 2.5 °F 12.2 °F 74% 29.93 in 10.0 mi North 23.0 mph 29.9 mph N/A   Clear
11:21 PM 19.4 °F 3.6 °F 12.2 °F 74% 29.94 in 10.0 mi North 19.6 mph 24.2 mph N/A   Clear
11:41 PM 19.4 °F 4.5 °F 12.2 °F 74% 29.95 in 10.0 mi North 17.3 mph 23.0 mph N/A   Clear